Weather History for Mount Holly, NJ

Change the Weather History Date:

Sunday, March 24, 2013

  Actual Average (KWRI) Record (KWRI)
Temperature  
Mean Temperature 36 °F -  
Max Temperature 46 °F 54 °F 64 °F (1999)
Min Temperature 25 °F 33 °F 18 °F (2014)
Degree Days  
Heating Degree Days 30    
Moisture  
Dew Point 21 °F    
Average Humidity 54    
Maximum Humidity 78    
Minimum Humidity 34    
Precipitation  
Precipitation 0.00 in - - ()
Sea Level Pressure  
Sea Level Pressure 29.86 in    
Wind  
Wind Speed 3 mph (North)    
Max Wind Speed 13 mph    
Max Gust Speed 17 mph    
Visibility 10 miles    
Events      
Averages and records for this station are not official NWS values.
T = Trace of Precipitation, MM = Missing Value Source: NWS Daily Summary

Daily Weather History Graph

Daily Weather History Graph

Search for Another Location

Airport:

Trip Planner

Search our weather history database for the weather conditions in past years. The results will help you decide how hot, cold, wet, or windy it might be!

Date:

Astronomy

Mar. 24, 2013 Rise Set
Actual Time 6:55 AM EDT 7:15 PM EDT
Civil Twilight 6:28 AM EDT 7:42 PM EDT
Nautical Twilight 5:57 AM EDT 8:14 PM EDT
Astronomical Twilight 5:24 AM EDT 8:47 PM EDT
Moon 4:41 PM EDT (3/24) 5:04 AM EDT (3/24)
Length of Visible Light 13h 13m
Length of Day
12h 19m
Waxing Gibbous, 91% of the Moon is Illuminated
Mar 24
Waxing Gibbous
Mar 27
Full
Apr 3
Last Quarter
Apr 10
New
Apr 18
First Quarter

Hourly Weather History & Observations

Time (EDT) Temp. Windchill Dew Point Humidity Pressure Visibility Wind Dir Wind Speed Gust Speed Precip Events Conditions
12:54 AM 35.1 °F 32.2 °F 18.0 °F 50% 29.97 in 10.0 mi West 3.5 mph - N/A   Clear
1:54 AM 34.0 °F 28.8 °F 18.0 °F 52% 29.96 in 10.0 mi North 5.8 mph - N/A   Clear
2:54 AM 30.9 °F - 18.0 °F 59% 29.97 in 10.0 mi Calm Calm - N/A   Partly Cloudy
3:54 AM 28.0 °F - 18.0 °F 66% 29.96 in 10.0 mi Calm Calm - N/A   Clear
4:54 AM 28.0 °F - 19.0 °F 69% 29.96 in 10.0 mi Calm Calm - N/A   Scattered Clouds
5:54 AM 26.1 °F 21.9 °F 19.9 °F 78% 29.99 in 10.0 mi West 3.5 mph - N/A   Partly Cloudy
6:54 AM 25.0 °F - 19.0 °F 78% 29.98 in 10.0 mi Calm Calm - N/A   Clear
7:54 AM 30.9 °F - 21.0 °F 67% 29.98 in 10.0 mi Calm Calm - N/A   Clear
8:54 AM 36.0 °F 33.3 °F 21.0 °F 55% 29.99 in 10.0 mi Variable 3.5 mph - N/A   Clear
9:54 AM 39.0 °F 32.3 °F 17.1 °F 41% 29.96 in 10.0 mi NNW 10.4 mph - N/A   Clear
10:54 AM 41.0 °F 33.9 °F 18.0 °F 40% 29.92 in 10.0 mi North 12.7 mph 17.3 mph N/A   Clear
11:54 AM 43.0 °F 38.2 °F 18.0 °F 37% 29.88 in 10.0 mi North 8.1 mph - N/A   Clear
12:54 PM 43.0 °F - 18.0 °F 37% 29.87 in 10.0 mi Calm Calm - N/A   Clear
1:54 PM 46.0 °F 41.4 °F 19.9 °F 35% 29.81 in 10.0 mi NNW 9.2 mph - N/A   Clear
3:54 PM 46.0 °F 43.9 °F 19.0 °F 34% 29.73 in 10.0 mi ENE 4.6 mph - N/A   Clear
4:54 PM 45.0 °F 42.6 °F 19.0 °F 36% 29.73 in 10.0 mi ESE 4.6 mph - N/A   Clear
5:54 PM 43.0 °F 39.5 °F 24.1 °F 47% 29.71 in 10.0 mi SE 5.8 mph - N/A   Clear
6:54 PM 41.0 °F 37.1 °F 24.1 °F 51% 29.74 in 10.0 mi SSE 5.8 mph - N/A   Clear
7:54 PM 39.0 °F 35.7 °F 24.1 °F 55% 29.75 in 10.0 mi SSE 4.6 mph - N/A   Clear
8:54 PM 37.9 °F - 25.0 °F 60% 29.77 in 10.0 mi Calm Calm - N/A   Partly Cloudy
9:54 PM 37.9 °F - 25.0 °F 60% 29.77 in 10.0 mi Calm Calm - N/A   Overcast
10:54 PM 37.9 °F - 25.0 °F 60% 29.73 in 10.0 mi Calm Calm - N/A   Overcast
11:54 PM 37.0 °F - 27.0 °F 67% 29.69 in 10.0 mi Calm Calm - N/A   Overcast